Regional Weather Roundup
Issued by NWS

Home | Current Version | Previous Version | Graphics & Text | Print | Product List | Glossary On
Versions: 1 2 3 4 5 6 7 8 9 10 11 12 13 14 15 16 17 18 19 20 21 22 23 24 25 26 27
000
ASUS45 KSLC 220710
RWRUT

UTAH REGIONAL WEATHER ROUNDUP
NATIONAL WEATHER SERVICE SALT LAKE CITY UT
1200 AM MST WED FEB 22 2017

UTZ001>011-023>025-220800-

NORTHERN UTAH

CITY           SKY/WX    TMP DP  RH WIND       PRES   REMARKS
BRIGHAM CITY     N/A     38  34  86 S15       30.07F WCI  29
HILL AFB       FLURRIES  32  32 100 S9        30.06S WCI  24
LOGAN          CLOUDY    36  34  92 S5        30.04F WCI  32
OGDEN          LGT RAIN  35  33  92 S9        30.07S WCI  28
SALT LAKE CITY CLOUDY    36  34  92 S7        30.08F WCI  30
WENDOVER       CLOUDY    39  23  52 E6        30.07R WCI  35
HEBER CITY     LGT SNOW  32  30  93 CALM      30.05R

$$

UTZ011>015-024>027-220800-

CENTRAL/NORTHEAST UTAH

CITY           SKY/WX    TMP DP  RH WIND       PRES   REMARKS
PROVO AIRPORT  LGT SNOW  34  32  92 NW12      30.09S FOG     WCI  25
MOAB/CANYONLAN MOCLDY    47  35  63 SW8       30.00S
DELTA          MOCLDY    36  32  87 N10       30.05S WCI  28
PRICE          PTCLDY    39  29  67 S8        29.98F WCI  33
RICHFIELD      PTCLDY    50  30  46 SW23G30   30.05F
VERNAL         CLEAR     42  32  67 E5        29.95R

$$

UTZ013>016-019>022-027-220800-

SOUTHERN UTAH

CITY           SKY/WX    TMP DP  RH WIND       PRES   REMARKS
BRYCE CANYON   MOCLDY    37  28  70 SW10      30.14F WCI  30
CEDAR CITY     PTCLDY    46  32  58 SW13G25   30.05F
MILFORD        MOCLDY    46  38  73 S18       30.05F
ST GEORGE      CLOUDY    55  42  61 SE9       30.08F
HANKSVILLE     PTCLDY    54  34  47 SW14G26   30.03S
KANAB          CLOUDY    50  39  66 SW3       30.17F
BLANDING       MOCLDY    44  37  77 S8        30.19F

$$

REGIONAL REPORTS     COLORADO/ARIZONA

CITY           SKY/WX    TMP DP  RH WIND       PRES   REMARKS
CRAIG, CO      CLOUDY    34  27  75 N18G28    29.99R WCI  23
GRAND JUNCTION CLOUDY    51  34  52 VRB3      30.00S
RIFLE, CO      CLOUDY    50  32  50 SW10      29.98S
MONTROSE, CO   CLOUDY    53  30  41 SW14G26   30.05F
CORTEZ, CO     CLOUDY    48  38  68 SW17      30.17R
COLORADO CITY    N/A     41  37  87 NE3       30.16F
PAGE, AZ       MOCLDY    52  31  44 CALM      30.10S
GRAND CANYON   PTCLDY    34  34 100 NE6       30.23F WCI  29
KINGMAN, AZ    PTCLDY    49  44  83 NE6       30.15F
FLAGSTAFF, AZ  CLOUDY    41  40  96 VRB3      30.26F

$$

REGIONAL REPORTS    NEVADA/IDAHO/WYOMING

CITY           SKY/WX    TMP DP  RH WIND       PRES   REMARKS
LAS VEGAS, NV  MOCLDY    61  37  41 S10G23    30.03S
ELY, NY        LGT SNOW  32  32 100 CALM      30.05R VSB 3/4
ELKO, NV       CLOUDY    32  28  85 SW8       30.08S WCI  25
POCATELLO, ID  PTCLDY    35  27  72 S15       30.02S WCI  25
BURLEY, ID     CLOUDY    38  26  62 W9        30.03S WCI  31
FORT BRIDGER,  LGT SNOW  28  28 100 W10       30.07R WCI  19
EVANSTON, WY   LGT SNOW  27  24  89 W6        30.03S FOG     WCI  20
ROCK SPRINGS,  LGT SNOW  28  26  92 SW12      30.00F FOG     WCI  18

$$




USA.gov is the U.S. government's official web portal to all federal, state and local government web resources and services.